[[{"header":{"parameterUnit":"m.s-1","parameterCategory":1,"la1":30.2991,"la2":30.254,"lo1":-89.0895,"lo2":-89.0444,"dy":0.0017,"dx":0.0017,"nx":28,"ny":28,"refTime":"2024-07-23T09:00:00:Z","depth":0,"parameterNumber":2,"parameterNumberName":"U-component_of_WINDS"},"data":[0,0,0,0,0,0,0,0,0,0,0,0,0,0,0,0,0,0,0,0,0,0,0,0,0,0,0,0,0,0,0,0,0,0,0,0,0,0,0,0,0,0,0,0,0,0,0,0,0,0,0,0,0,0,0,0,0,0,-0.016,-0.017,0,-0.1091,-0.1101,-0.1112,-0.1639,-0.164,-0.1642,-0.1644,-0.2594,-0.2617,-0.2641,0,0,0,0,0,0,0,0,0,0,0,0,0,0.1158,0.1137,-0.0159,-0.0171,-0.0183,-0.1089,-0.1102,-0.1114,-0.1638,-0.164,-0.1643,-0.1645,-0.2587,-0.2614,-0.2643,0,0,0,0,0,0,0,0,0,0,0,0,0,0.0444,0.113,-0.0157,-0.0553,-0.0598,-0.1086,-0.1102,-0.1118,-0.1638,-0.164,-0.1643,-0.1646,-0.2577,-0.2612,-0.2647,-0.2812,0,0,-0.2755,-0.2771,0,0,0,0,0,0,0,0,0.0485,0.0396,-0.0484,-0.0527,-0.0578,-0.1251,-0.0986,-0.1686,-0.1637,-0.1243,-0.1644,-0.1647,-0.2145,-0.2216,-0.2385,-0.2857,-0.2897,-0.2758,-0.278,-0.2795,-0.2805,0,0,0,0,0,0,0,0.0535,0.0433,-0.0528,-0.0496,-0.0554,-0.0687,-0.0791,-0.1121,-0.1667,-0.1278,-0.1318,-0.1421,-0.2172,-0.2349,-0.2411,-0.2911,-0.2757,-0.2789,-0.2811,-0.2825,-0.3575,-0.3573,0,0,0,0,0,0,0.0648,0.0477,-0.0499,-0.0556,-0.0043,-0.0708,-0.0825,-0.1032,-0.1666,-0.1765,-0.1418,-0.1442,-0.2288,-0.2369,-0.2446,-0.2687,-0.2795,-0.2828,-0.2848,-0.3576,-0.3574,-0.3573,0,0,0,0,0,0,0.0678,0.0566,-0.0461,-0.0051,-0.0192,-0.0728,-0.0956,-0.1049,-0.1228,-0.1772,-0.1872,-0.1499,-0.2293,-0.2397,-0.272,-0.2726,-0.2844,-0.2876,-0.3577,-0.3575,-0.3573,-0.3162,0,0,0,0,0,0,0.0718,0.058,0.0514,-0.0048,-0.0211,-0.0715,-0.0957,-0.1066,-0.1288,-0.1328,-0.1874,-0.1967,-0.2303,-0.2664,-0.2754,-0.2777,-0.2904,-0.3579,-0.3577,-0.3574,-0.3177,-0.3146,-0.3119,0,0,0,0,0,0.0767,0.0669,0.0513,0.0399,-0.0305,-0.0714,-0.0808,-0.1193,-0.1286,-0.1359,-0.171,-0.195,-0.2711,-0.2692,-0.2799,-0.2832,-0.358,-0.3577,-0.3574,-0.319,-0.3152,-0.312,0,0,0,0,0,0,0.1247,0.0588,0.0409,0.0126,-0.0234,-0.0802,-0.0904,-0.1139,-0.1479,-0.1503,-0.1967,-0.2086,-0.2364,-0.2633,-0.2599,-0.303,-0.3173,-0.319,-0.2844,-0.2812,-0.2784,-0.2712,-0.2933,0,0,0,0,0,0.132,0.1044,0.0482,0.0286,0.0114,-0.0362,-0.0555,-0.0822,-0.1213,-0.1367,-0.1742,-0.2112,-0.2438,-0.264,-0.2969,-0.3221,-0.3349,-0.3297,-0.3268,-0.3242,-0.3251,-0.341,-0.3394,-0.3563,-0.3563,-0.3563,0,0,0.1468,0.1073,0.0928,0.0373,0.0062,-0.0215,-0.0487,-0.0767,-0.0979,-0.1411,-0.1739,-0.2026,-0.2472,-0.276,-0.2907,-0.2992,-0.3234,-0.3238,-0.3212,-0.3238,-0.3405,-0.3388,-0.3374,-0.3561,-0.3561,-0.3561,0,0,0.1595,0.1271,0.1069,0.0762,0.0294,-0.0025,-0.0072,-0.0608,-0.0816,-0.1154,-0.1485,-0.1745,-0.2292,-0.2598,-0.2824,-0.2821,-0.3056,-0.2915,-0.2763,-0.2912,-0.2899,-0.2889,-0.289,-0.2885,-0.2924,-0.2923,-0.2922,0,0.1839,0.1409,0.0996,0.0732,0.0496,0.0088,-0.0122,-0.04,-0.0949,-0.1104,-0.1193,-0.1894,-0.2222,-0.2591,-0.259,-0.276,-0.2832,-0.2853,-0.2867,-0.2862,-0.286,-0.2866,-0.2865,-0.2903,-0.2905,-0.2907,-0.2909,0,0.173,0.1436,0.1329,0.0806,0.0556,0.0323,-0.0129,-0.0332,-0.0579,-0.0888,-0.1231,-0.1641,-0.2061,-0.217,-0.2412,-0.2575,-0.2615,-0.2779,-0.2931,-0.2816,-0.283,-0.2836,-0.2874,-0.2881,-0.2887,-0.2892,0,0,0.2142,0.1386,0.1355,0.1109,0.0559,0.0322,0.0066,-0.0348,-0.0514,-0.0882,-0.111,-0.1568,-0.1727,-0.1984,-0.2266,-0.2397,-0.2373,-0.2549,-0.2566,-0.2502,-0.2582,-0.2452,-0.2448,-0.2534,-0.2536,-0.2538,-0.2545,0,0.219,0.1713,0.133,0.0995,0.0715,0.0319,0.0095,-0.0268,-0.0566,-0.0849,-0.1181,-0.1498,-0.1682,-0.1841,-0.1989,-0.2342,-0.2394,-0.2349,-0.2751,-0.276,-0.2624,-0.2456,-0.2319,-0.2305,-0.2553,-0.2554,-0.2555,0,0.2186,0.183,0.1469,0.0939,0.0807,0.0614,0.02,-0.0065,-0.0487,-0.0697,-0.0986,-0.1282,-0.1574,-0.17,-0.2111,-0.207,-0.226,-0.246,-0.2469,-0.2519,-0.2647,-0.25,-0.231,-0.2306,-0.2567,-0.2566,-0.2566,0,0.2523,0.1952,0.1659,0.1462,0.0839,0.0711,0.0445,0.0019,-0.0208,-0.0571,-0.0724,-0.1114,-0.1327,-0.1625,-0.2019,-0.2074,-0.239,-0.2548,-0.2572,-0.2562,-0.2617,-0.2607,-0.2452,-0.274,-0.274,-0.274,-0.274,0,0.2619,0.2413,0.1801,0.1623,0.1378,0.0935,0.0704,0.0404,0.0027,-0.022,-0.0588,-0.0812,-0.1321,-0.1608,-0.1919,-0.2213,-0.2307,-0.2485,-0.2565,-0.2451,-0.2428,-0.2579,-0.2589,-0.274,-0.274,-0.274,-0.274,0,0.2957,0.2539,0.2194,0.1629,0.1482,0.1327,0.0841,0.065,0.0327,0.0019,-0.0079,-0.0584,-0.0942,-0.1367,-0.1861,-0.2072,-0.2339,-0.2459,-0.2194,-0.2241,-0.2241,-0.2234,-0.2176,-0.2192,-0.2464,-0.2461,-0.2458,0,0.3048,0.2879,0.2294,0.2102,0.1846,0.1541,0.1306,0.0861,0.0632,0.0132,0.0001,-0.0386,-0.0718,-0.1271,-0.1684,-0.2066,-0.2197,-0.2152,-0.2257,-0.2139,-0.2198,-0.2181,-0.2202,-0.212,-0.2115,-0.211,-0.2107,0,0.3253,0.3052,0.2729,0.233,0.206,0.1725,0.1375,0.1237,0.072,0.048,0.0108,-0.0149,-0.0659,-0.1038,-0.1475,-0.1753,-0.2016,-0.2072,-0.2098,-0.1982,-0.1822,-0.1909,-0.2116,-0.207,-0.2073,-0.2076,-0.2078,-0.208,0.3468,0.3298,0.2859,0.2508,0.2196,0.1875,0.1666,0.1315,0.0997,0.0549,0.0303,-0.0063,-0.0492,-0.1105,-0.1374,-0.167,-0.1761,-0.1798,-0.1807,-0.1809,-0.1776,-0.1777,-0.1751,-0.1753,-0.1754,-0.1756,-0.1757,0,0.3654,0.335,0.3032,0.2551,0.2274,0.2045,0.1643,0.1426,0.1109,0.0731,0.041,-0.002,-0.0393,-0.0838,-0.1241,-0.1392,-0.1523,-0.1483,-0.1474,-0.1535,-0.167,-0.1607,-0.137,-0.137,-0.137,-0.137,-0.137,-0.137,0.372,0.3418,0.3165,0.2702,0.2396,0.2035,0.1824,0.1524,0.1219,0.0756,0.0444,0.0155,-0.0253,-0.069,-0.1043,-0.1166,-0.1296,-0.1218,-0.1375,-0.1492,-0.1525,-0.1556,-0.15,-0.1243,-0.1243,-0.1217,-0.1216,-0.1216]},{"header":{"parameterUnit":"m.s-1","parameterCategory":1,"la1":30.2991,"la2":30.254,"lo1":-89.0895,"lo2":-89.0444,"dy":0.0017,"dx":0.0017,"nx":28,"ny":28,"refTime":"2024-07-23T09:00:00:Z","depth":0,"parameterNumber":3,"parameterNumberName":"V-component_of_WINDS"},"data":[0,0,0,0,0,0,0,0,0,0,0,0,0,0,0,0,0,0,0,0,0,0,0,0,0,0,0,0,0,0,0,0,0,0,0,0,0,0,0,0,0,0,0,0,0,0,0,0,0,0,0,0,0,0,0,0,0,0,3.3319,3.332,0,3.3388,3.3389,3.3389,3.3454,3.3455,3.3456,3.3457,3.352,3.3521,3.3521,0,0,0,0,0,0,0,0,0,0,0,0,0,3.3237,3.3238,3.3319,3.332,3.3321,3.3388,3.3389,3.339,3.3454,3.3455,3.3456,3.3457,3.3519,3.352,3.3522,0,0,0,0,0,0,0,0,0,0,0,0,0,3.3286,3.3239,3.3319,3.3362,3.3366,3.3388,3.3389,3.339,3.3454,3.3455,3.3457,3.3458,3.3519,3.352,3.3522,3.3505,0,0,3.3526,3.3526,0,0,0,0,0,0,0,0,3.3283,3.3289,3.3355,3.3359,3.3364,3.3414,3.3383,3.3428,3.3454,3.342,3.3457,3.3458,3.3483,3.3487,3.3497,3.3508,3.351,3.3526,3.3527,3.3527,3.3528,0,0,0,0,0,0,0,3.3279,3.3286,3.3346,3.3355,3.3361,3.3375,3.3383,3.3392,3.3443,3.3423,3.3428,3.3436,3.3486,3.3496,3.3499,3.3511,3.3526,3.3527,3.3528,3.3528,3.3509,3.3508,0,0,0,0,0,0,3.3271,3.3283,3.3344,3.3348,3.3326,3.3375,3.3384,3.3396,3.3444,3.3452,3.3435,3.3439,3.3493,3.3498,3.3502,3.3483,3.3527,3.3528,3.3529,3.351,3.3509,3.3507,0,0,0,0,0,0,3.3269,3.3276,3.3341,3.3317,3.3327,3.3375,3.3388,3.3397,3.3407,3.3452,3.3461,3.3436,3.3494,3.35,3.3503,3.3486,3.3529,3.353,3.3512,3.351,3.3508,3.3447,0,0,0,0,0,0,3.3266,3.3274,3.327,3.3317,3.3328,3.3344,3.3387,3.3398,3.341,3.3416,3.3456,3.3464,3.3496,3.3501,3.3505,3.3489,3.3531,3.3513,3.3511,3.3508,3.3451,3.3444,3.3437,0,0,0,0,0,3.3263,3.3249,3.327,3.3277,3.3324,3.3343,3.3349,3.3388,3.3409,3.3404,3.3432,3.3462,3.3488,3.3501,3.3506,3.349,3.3515,3.3511,3.3509,3.3454,3.3445,3.3437,0,0,0,0,0,0,3.3197,3.3256,3.3279,3.3281,3.3307,3.3354,3.3349,3.3378,3.3396,3.34,3.3446,3.3454,3.3452,3.3472,3.3485,3.3475,3.3505,3.3503,3.3462,3.3454,3.3447,3.3442,3.3532,0,0,0,0,0,3.3183,3.3197,3.3246,3.3243,3.3255,3.3299,3.3309,3.3337,3.3365,3.3375,3.3405,3.3428,3.3441,3.3449,3.3464,3.3455,3.3463,3.3446,3.3439,3.3433,3.343,3.3425,3.3417,3.3497,3.3497,3.3497,0,0,3.3154,3.3188,3.3193,3.323,3.3254,3.3264,3.3308,3.3317,3.3324,3.3376,3.3382,3.3404,3.3433,3.3429,3.3429,3.3445,3.341,3.343,3.3424,3.3425,3.3421,3.3413,3.3406,3.3495,3.3496,3.3496,0,0,3.3105,3.3133,3.3133,3.3155,3.3191,3.3221,3.322,3.3264,3.3281,3.3288,3.3327,3.3334,3.3357,3.3376,3.3388,3.3346,3.3373,3.335,3.3312,3.3307,3.33,3.3295,3.3278,3.3271,3.3347,3.3347,3.3347,0,3.3063,3.3082,3.3128,3.3135,3.3149,3.3199,3.3197,3.3216,3.3253,3.3261,3.3279,3.3308,3.3332,3.3332,3.3322,3.3331,3.333,3.3344,3.3298,3.3293,3.3289,3.3273,3.3266,3.3343,3.3344,3.3344,3.3344,0,3.3028,3.304,3.3035,3.3073,3.3087,3.3089,3.3132,3.314,3.3167,3.3194,3.3199,3.3229,3.325,3.3252,3.3278,3.3256,3.3265,3.329,3.3321,3.3277,3.3263,3.3257,3.3339,3.334,3.3341,3.3342,0,0,3.2938,3.3002,3.2999,3.3016,3.3059,3.3068,3.3071,3.3094,3.3099,3.3123,3.3126,3.3144,3.3167,3.3181,3.3209,3.3204,3.3166,3.323,3.3231,3.3215,3.3142,3.3121,3.3114,3.3186,3.3185,3.3184,3.3139,0,3.2895,3.2908,3.2948,3.2947,3.2957,3.3005,3.3008,3.3033,3.3058,3.3069,3.3096,3.3107,3.3138,3.3147,3.3144,3.3171,3.3152,3.3176,3.3185,3.3185,3.3175,3.3107,3.3085,3.3041,3.3134,3.3133,3.3132,0,3.2846,3.2869,3.2869,3.2912,3.2917,3.292,3.2943,3.2954,3.2982,3.3001,3.3017,3.3048,3.3052,3.3082,3.3087,3.3102,3.3108,3.3122,3.3121,3.3122,3.3154,3.3103,3.3028,3.302,3.3124,3.3125,3.3125,0,3.2778,3.2809,3.2813,3.2827,3.2876,3.2876,3.2896,3.2926,3.2937,3.2957,3.2964,3.2983,3.2993,3.3006,3.3041,3.306,3.304,3.3074,3.3053,3.3052,3.3045,3.3045,3.2967,3.3052,3.3053,3.3053,3.3053,0,3.2725,3.2722,3.2783,3.2785,3.2783,3.2829,3.2825,3.2849,3.2876,3.2881,3.2923,3.2927,3.2974,3.2983,3.301,3.3008,3.3012,3.3025,3.3032,3.3021,3.3018,3.3024,3.3027,3.3051,3.3051,3.3052,3.3052,0,3.2648,3.2689,3.2696,3.2743,3.2755,3.2751,3.2789,3.2792,3.282,3.2826,3.283,3.2873,3.2885,3.2923,3.2943,3.2962,3.295,3.2965,3.2941,3.2945,3.2921,3.2922,3.2843,3.2834,3.2926,3.2926,3.2925,0,3.261,3.261,3.2657,3.2665,3.2684,3.2696,3.2708,3.2752,3.2762,3.2795,3.2792,3.2808,3.2823,3.2839,3.2871,3.2886,3.29,3.2872,3.2903,3.2891,3.2897,3.2896,3.2895,3.2864,3.2863,3.2862,3.2861,0,3.2537,3.2558,3.2575,3.2598,3.2612,3.2632,3.2654,3.2657,3.2707,3.2715,3.2729,3.2741,3.2763,3.2777,3.2798,3.2816,3.2845,3.2852,3.2847,3.2834,3.2819,3.2825,3.292,3.2852,3.2853,3.2854,3.2854,3.2855,3.2477,3.2479,3.2512,3.2529,3.2551,3.257,3.2575,3.2604,3.2618,3.264,3.2666,3.2676,3.2703,3.2734,3.275,3.2757,3.2773,3.2767,3.2765,3.2763,3.2756,3.282,3.2761,3.2761,3.2762,3.2762,3.2762,0,3.2405,3.2429,3.2445,3.2475,3.2488,3.2518,3.2544,3.2551,3.2561,3.2585,3.2599,3.2614,3.2628,3.2661,3.2677,3.2676,3.269,3.2679,3.2678,3.2681,3.2742,3.2743,3.2667,3.2667,3.2667,3.2667,3.2667,3.2667,3.2369,3.2372,3.2396,3.241,3.2434,3.2446,3.2458,3.2475,3.2495,3.251,3.2523,3.2546,3.2572,3.2591,3.2604,3.2613,3.2616,3.26,3.2613,3.2668,3.2677,3.2686,3.2687,3.2601,3.2601,3.2552,3.2551,3.2551]}]]